Location: De Lemmer
(52.8462°N, 5.7091°E)
Time: 11:43:43
(UTC+00:00)

Terra - Pass Details

Date: 18 September 2020
Orbit: 701 x 703 km, 98.2° (Epoch: 31 October)

Event Time Altitude Azimuth Distance (km) Brightness Sun altitude
Exits shadow 21:57:46 36° 310° (NW) 1,115 3.2 -32.3°
Drops below altitude 10° 22:00:54 10° 336° (NNW) 2,185 5.2 -32.6°
Sets 22:03:15 0° 342° (NNW) 3,108 6.2 -32.7°
